| time (UTC) | temp F | wind direction | speed knots | gust knots | rain 1hr in | rain 24hr in | rain mn in | humidity % | barometer mb |
| 20260506230330 | 57 | 203 | 5.2 | 11.3 | 0.01 | 0.12 | 0.01 | 92 | 1014.0 |
| 20260506225826 | 57 | 199 | 7.0 | 12.2 | 0.01 | 0.11 | 0.01 | 92 | 1014.1 |
| 20260506225329 | 57 | 197 | 8.7 | 13.0 | 0.01 | 0.11 | 0.01 | 92 | 1014.1 |
| 20260506224821 | 57 | 197 | 9.6 | 13.0 | 0.01 | 0.11 | 0.01 | 92 | 1014.2 |
| 20260506224323 | 57 | 199 | 8.7 | 13.9 | 0.00 | 0.11 | 0.00 | 92 | 1014.1 |
| 20260506223817 | 58 | 189 | 7.8 | 13.9 | 0.00 | 0.11 | 0.00 | 91 | 1014.3 |
| 20260506223315 | 58 | 203 | 7.8 | 12.2 | 0.00 | 0.11 | 0.00 | 91 | 1014.4 |
| 20260506222815 | 58 | 182 | 5.2 | 9.6 | 0.00 | 0.11 | 0.00 | 91 | 1014.4 |
| 20260506221816 | 58 | 212 | 4.3 | 7.8 | 0.00 | 0.11 | 0.00 | 91 | 1014.4 |
| 20260506221251 | 58 | 140 | 5.2 | 9.6 | 0.00 | 0.11 | 0.00 | 91 | 1014.4 |
| 20260506220748 | 58 | 199 | 6.1 | 13.0 | 0.00 | 0.11 | 0.00 | 91 | 1014.3 |
| 20260506220309 | 58 | 230 | 6.1 | 13.0 | 0.00 | 0.11 | 0.00 | 91 | 1014.2 |
| 20260506215734 | 58 | 209 | 7.8 | 10.4 | 0.00 | 0.11 | 0.11 | 91 | 1014.1 |
| 20260506215231 | 58 | 182 | 5.2 | 8.7 | 0.00 | 0.11 | 0.11 | 91 | 1014.3 |
| 20260506214236 | 58 | 190 | 2.6 | 9.6 | 0.00 | 0.11 | 0.11 | 91 | 1014.3 |
| 20260506213720 | 58 | 206 | 2.6 | 9.6 | 0.00 | 0.11 | 0.11 | 91 | 1014.3 |
| 20260506213219 | 58 | 202 | 6.1 | 13.0 | 0.00 | 0.11 | 0.11 | 91 | 1014.2 |
| 20260506212716 | 58 | 175 | 8.7 | 13.0 | 0.00 | 0.11 | 0.11 | 91 | 1014.2 |
| 20260506212223 | 58 | 213 | 7.8 | 13.0 | 0.00 | 0.11 | 0.11 | 91 | 1014.2 |
| 20260506211209 | 58 | 169 | 7.0 | 11.3 | 0.00 | 0.11 | 0.11 | 90 | 1014.3 |
| 20260506210705 | 58 | 169 | 5.2 | 7.8 | 0.00 | 0.11 | 0.11 | 90 | 1014.5 |
| 20260506205703 | 58 | 226 | 4.3 | 6.1 | 0.00 | 0.11 | 0.11 | 90 | 1014.4 |
| 20260506204154 | 58 | 212 | 3.5 | 12.2 | 0.00 | 0.11 | 0.11 | 89 | 1014.3 |
| 20260506203656 | 58 | 173 | 7.0 | 14.8 | 0.00 | 0.11 | 0.11 | 89 | 1014.4 |
| 20260506202634 | 58 | 214 | 8.7 | 13.0 | 0.00 | 0.11 | 0.11 | 89 | 1014.3 |
| 20260506202129 | 58 | 214 | 5.2 | 11.3 | 0.00 | 0.11 | 0.11 | 89 | 1014.3 |
| 20260506201624 | 58 | 200 | 6.1 | 11.3 | 0.00 | 0.11 | 0.11 | 90 | 1014.3 |
| 20260506201123 | 58 | 261 | 5.2 | 12.2 | 0.00 | 0.11 | 0.11 | 90 | 1014.2 |
| 20260506200619 | 58 | 212 | 7.0 | 12.2 | 0.00 | 0.11 | 0.11 | 90 | 1014.1 |
| 20260506200109 | 58 | 228 | 4.3 | 10.4 | 0.00 | 0.11 | 0.11 | 89 | 1014.0 |
| 20260506195643 | 58 | 172 | 7.8 | 13.0 | 0.00 | 0.11 | 0.11 | 89 | 1013.9 |
| 20260506194101 | 58 | 221 | 4.3 | 9.6 | 0.00 | 0.11 | 0.11 | 89 | 1013.8 |
| 20260506193603 | 58 | 210 | 5.2 | 9.6 | 0.01 | 0.11 | 0.11 | 89 | 1013.8 |
| 20260506193053 | 58 | 199 | 7.0 | 12.2 | 0.01 | 0.11 | 0.11 | 89 | 1013.7 |
| 20260506192607 | 58 | 161 | 7.0 | 12.2 | 0.02 | 0.11 | 0.11 | 89 | 1013.6 |
| 20260506192043 | 58 | 221 | 8.7 | 12.2 | 0.02 | 0.11 | 0.11 | 89 | 1013.5 |
| 20260506191546 | 58 | 233 | 5.2 | 13.0 | 0.02 | 0.11 | 0.11 | 89 | 1013.6 |
| 20260506191048 | 58 | 210 | 7.8 | 13.0 | 0.02 | 0.11 | 0.11 | 89 | 1013.5 |
| 20260506190545 | 58 | 210 | 6.1 | 12.2 | 0.02 | 0.11 | 0.11 | 89 | 1013.6 |
| 20260506190036 | 58 | 195 | 6.1 | 11.3 | 0.02 | 0.09 | 0.11 | 89 | 1013.6 |
| 20260506185541 | 58 | 238 | 6.1 | 11.3 | 0.02 | 0.09 | 0.11 | 89 | 1013.5 |
| 20260506185031 | 58 | 155 | 7.0 | 9.6 | 0.02 | 0.09 | 0.11 | 89 | 1013.4 |
| 20260506184509 | 58 | 175 | 6.1 | 10.4 | 0.02 | 0.09 | 0.11 | 89 | 1013.4 |
| 20260506184001 | 58 | 213 | 7.0 | 10.4 | 0.02 | 0.09 | 0.10 | 88 | 1013.4 |
| 20260506183442 | 59 | 207 | 4.3 | 9.6 | 0.02 | 0.09 | 0.10 | 88 | 1013.5 |
| 20260506182425 | 59 | 189 | 5.2 | 10.4 | 0.00 | 0.09 | 0.09 | 86 | 1013.3 |
| 20260506181421 | 60 | 182 | 6.1 | 13.0 | 0.00 | 0.09 | 0.09 | 85 | 1013.3 |
| 20260506180914 | 59 | 219 | 8.7 | 13.9 | 0.00 | 0.09 | 0.09 | 85 | 1013.3 |
| 20260506180414 | 60 | 158 | 9.6 | 16.5 | 0.00 | 0.09 | 0.09 | 85 | 1013.4 |
| 20260506175912 | 60 | 217 | 9.6 | 17.4 | 0.00 | 0.09 | 0.09 | 85 | 1013.3 |
| 20260506174854 | 60 | 180 | 8.7 | 16.5 | 0.00 | 0.09 | 0.09 | 85 | 1013.3 |
| 20260506174349 | 60 | 199 | 12.2 | 15.6 | 0.00 | 0.09 | 0.09 | 84 | 1013.3 |
| 20260506173845 | 60 | 230 | 9.6 | 13.9 | 0.00 | 0.09 | 0.09 | 84 | 1013.4 |
| 20260506173342 | 60 | 203 | 7.8 | 13.0 | 0.00 | 0.09 | 0.09 | 84 | 1013.4 |
| 20260506172846 | 60 | 203 | 6.1 | 15.6 | 0.00 | 0.09 | 0.09 | 84 | 1013.4 |
| 20260506172343 | 60 | 223 | 6.1 | 15.6 | 0.00 | 0.09 | 0.09 | 84 | 1013.3 |
| 20260506171833 | 60 | 227 | 7.0 | 13.0 | 0.00 | 0.09 | 0.09 | 84 | 1013.3 |
| 20260506171348 | 60 | 166 | 7.8 | 13.0 | 0.00 | 0.09 | 0.09 | 84 | 1013.3 |
| 20260506165335 | 60 | 197 | 10.4 | 18.2 | 0.00 | 0.09 | 0.09 | 84 | 1013.2 |
| 20260506164832 | 60 | 207 | 13.9 | 18.2 | 0.00 | 0.09 | 0.09 | 83 | 1013.1 |
| 20260506164329 | 60 | 204 | 7.0 | 14.8 | 0.00 | 0.09 | 0.09 | 85 | 1013.2 |
| 20260506163823 | 60 | 227 | 9.6 | 14.8 | 0.00 | 0.09 | 0.09 | 85 | 1013.2 |
| 20260506163318 | 60 | 224 | 8.7 | 13.9 | 0.00 | 0.09 | 0.09 | 85 | 1013.2 |
| 20260506162312 | 60 | 200 | 12.2 | 20.0 | 0.00 | 0.09 | 0.09 | 85 | 1013.3 |
| 20260506161811 | 61 | 175 | 9.6 | 14.8 | 0.00 | 0.09 | 0.09 | 85 | 1013.3 |
| 20260506161312 | 61 | 200 | 7.0 | 11.3 | 0.00 | 0.09 | 0.09 | 85 | 1013.2 |
| 20260506160812 | 61 | 186 | 7.8 | 14.8 | 0.00 | 0.09 | 0.09 | 85 | 1013.3 |
| 20260506155746 | 61 | 162 | 11.3 | 16.5 | 0.00 | 0.09 | 0.09 | 85 | 1013.4 |
| 20260506155252 | 61 | 193 | 8.7 | 16.5 | 0.00 | 0.09 | 0.09 | 85 | 1013.3 |
| 20260506154744 | 62 | 49 | 9.6 | 15.6 | 0.00 | 0.09 | 0.09 | 84 | 1013.3 |
| 20260506154244 | 62 | 195 | 10.4 | 15.6 | 0.00 | 0.09 | 0.09 | 85 | 1013.3 |
| 20260506153740 | 62 | 207 | 7.8 | 13.9 | 0.00 | 0.09 | 0.09 | 85 | 1013.2 |
| 20260506153232 | 62 | 206 | 6.1 | 13.9 | 0.00 | 0.09 | 0.09 | 86 | 1013.3 |
| 20260506152727 | 61 | 171 | 7.8 | 13.0 | 0.00 | 0.09 | 0.09 | 86 | 1013.3 |
| 20260506152229 | 61 | 221 | 7.8 | 15.6 | 0.00 | 0.09 | 0.09 | 86 | 1013.3 |
| 20260506151724 | 61 | 213 | 8.7 | 15.6 | 0.00 | 0.09 | 0.09 | 86 | 1013.4 |
| 20260506151212 | 61 | 223 | 7.8 | 14.8 | 0.00 | 0.09 | 0.09 | 86 | 1013.4 |
| 20260506150212 | 61 | 197 | 9.6 | 13.9 | 0.00 | 0.09 | 0.09 | 86 | 1013.2 |
| 20260506145712 | 61 | 178 | 4.3 | 13.0 | 0.00 | 0.09 | 0.09 | 87 | 1013.3 |
| 20260506144211 | 60 | 197 | 10.4 | 17.4 | 0.04 | 0.09 | 0.09 | 87 | 1013.2 |
| 20260506143710 | 60 | 243 | 11.3 | 20.9 | 0.04 | 0.09 | 0.09 | 87 | 1013.4 |
| 20260506143210 | 60 | 148 | 13.9 | 20.9 | 0.04 | 0.09 | 0.09 | 86 | 1013.3 |
| 20260506142712 | 60 | 209 | 11.3 | 19.1 | 0.04 | 0.09 | 0.09 | 87 | 1013.3 |
| 20260506142210 | 60 | 210 | 11.3 | 18.2 | 0.04 | 0.09 | 0.09 | 88 | 1013.1 |
| 20260506141710 | 60 | 162 | 11.3 | 16.5 | 0.04 | 0.09 | 0.09 | 88 | 1013.3 |
| 20260506141213 | 60 | 261 | 9.6 | 17.4 | 0.04 | 0.09 | 0.09 | 88 | 1013.3 |
| 20260506140710 | 60 | 214 | 7.8 | 17.4 | 0.04 | 0.09 | 0.09 | 88 | 1013.3 |
| 20260506140211 | 60 | 244 | 5.2 | 12.2 | 0.04 | 0.09 | 0.09 | 88 | 1013.3 |
| 20260506135709 | 60 | 224 | 7.8 | 12.2 | 0.04 | 0.05 | 0.09 | 88 | 1013.3 |
| 20260506135210 | 60 | 176 | 3.5 | 14.8 | 0.04 | 0.05 | 0.09 | 87 | 1013.2 |
| 20260506134208 | 61 | 195 | 8.7 | 13.9 | 0.00 | 0.05 | 0.05 | 84 | 1013.3 |
| 20260506133715 | 61 | 233 | 7.0 | 13.9 | 0.00 | 0.05 | 0.05 | 84 | 1013.2 |
| 20260506133211 | 62 | 200 | 7.8 | 13.9 | 0.00 | 0.05 | 0.05 | 83 | 1013.3 |
| 20260506132712 | 62 | 217 | 7.8 | 13.9 | 0.00 | 0.06 | 0.05 | 84 | 1013.5 |
| 20260506132208 | 61 | 279 | 3.5 | 16.5 | 0.00 | 0.06 | 0.05 | 84 | 1013.4 |
| 20260506131208 | 61 | 234 | 12.2 | 20.0 | 0.00 | 0.06 | 0.05 | 80 | 1013.7 |
| 20260506130221 | 63 | 200 | 12.2 | 18.2 | 0.00 | 0.06 | 0.05 | 76 | 1013.7 |
| 20260506125708 | 63 | 213 | 11.3 | 20.0 | 0.00 | 0.06 | 0.05 | 75 | 1013.6 |
| 20260506125216 | 64 | 203 | 13.0 | 20.0 | 0.00 | 0.06 | 0.05 | 73 | 1013.6 |
| 20260506124708 | 64 | 133 | 10.4 | 25.2 | 0.00 | 0.06 | 0.05 | 72 | 1013.6 |
| 20260506124212 | 64 | 200 | 13.0 | 25.2 | 0.00 | 0.06 | 0.05 | 71 | 1013.6 |
| 20260506123707 | 65 | 262 | 15.6 | 24.3 | 0.00 | 0.06 | 0.05 | 69 | 1013.7 |
| 20260506123207 | 65 | 250 | 7.8 | 25.2 | 0.00 | 0.06 | 0.05 | 68 | 1013.6 |
| 20260506122721 | 65 | 216 | 13.0 | 25.2 | 0.00 | 0.06 | 0.05 | 69 | 1013.7 |
| 20260506122207 | 65 | 173 | 17.4 | 24.3 | 0.00 | 0.07 | 0.05 | 68 | 1013.7 |
| 20260506121706 | 64 | 243 | 15.6 | 25.2 | 0.00 | 0.07 | 0.05 | 68 | 1013.7 |
| 20260506121208 | 65 | 217 | 11.3 | 25.2 | 0.00 | 0.07 | 0.05 | 71 | 1013.6 |
| 20260506120708 | 64 | 199 | 10.4 | 22.6 | 0.00 | 0.08 | 0.05 | 69 | 1013.6 |
| 20260506120201 | 64 | 219 | 14.8 | 22.6 | 0.00 | 0.08 | 0.05 | 69 | 1013.6 |
| 20260506115154 | 65 | 217 | 9.6 | 20.9 | 0.00 | 0.08 | 0.05 | 68 | 1013.6 |
| 20260506114647 | 65 | 169 | 9.6 | 16.5 | 0.00 | 0.08 | 0.05 | 70 | 1013.6 |
| 20260506114139 | 64 | 207 | 7.0 | 26.9 | 0.00 | 0.08 | 0.05 | 70 | 1013.6 |
| 20260506113636 | 64 | 204 | 15.6 | 26.9 | 0.00 | 0.09 | 0.05 | 70 | 1013.7 |
| 20260506113137 | 64 | 200 | 11.3 | 20.9 | 0.00 | 0.09 | 0.05 | 70 | 1013.6 |
| 20260506112649 | 64 | 223 | 10.4 | 20.0 | 0.00 | 0.09 | 0.05 | 69 | 1013.6 |
| 20260506112135 | 64 | 197 | 14.8 | 20.0 | 0.00 | 0.09 | 0.05 | 68 | 1013.5 |
| 20260506111625 | 64 | 216 | 8.7 | 22.6 | 0.00 | 0.09 | 0.05 | 69 | 1013.4 |
| 20260506111122 | 64 | 227 | 12.2 | 24.3 | 0.00 | 0.09 | 0.05 | 71 | 1013.5 |
| 20260506110631 | 63 | 203 | 10.4 | 24.3 | 0.00 | 0.09 | 0.05 | 71 | 1013.6 |
| 20260506110128 | 63 | 221 | 17.4 | 26.1 | 0.00 | 0.09 | 0.05 | 72 | 1013.7 |
| 20260506105610 | 63 | 213 | 16.5 | 26.1 | 0.00 | 0.09 | 0.05 | 73 | 1013.7 |
| 20260506105107 | 63 | 171 | 10.4 | 24.3 | 0.00 | 0.09 | 0.05 | 71 | 1013.7 |
| 20260506104612 | 62 | 204 | 14.8 | 24.3 | 0.00 | 0.09 | 0.05 | 71 | 1013.8 |
| 20260506104106 | 63 | 228 | 13.0 | 20.0 | 0.00 | 0.10 | 0.05 | 71 | 1013.8 |
| 20260506103614 | 63 | 219 | 11.3 | 23.5 | 0.00 | 0.10 | 0.05 | 71 | 1013.8 |
| 20260506103103 | 63 | 231 | 11.3 | 23.5 | 0.00 | 0.11 | 0.05 | 71 | 1013.7 |
| 20260506102603 | 63 | 190 | 12.2 | 22.6 | 0.00 | 0.12 | 0.05 | 71 | 1013.7 |
| 20260506102108 | 63 | 192 | 12.2 | 22.6 | 0.00 | 0.12 | 0.05 | 71 | 1013.8 |
| 20260506101553 | 63 | 161 | 12.2 | 26.1 | 0.00 | 0.12 | 0.05 | 69 | 1013.8 |
| 20260506100551 | 63 | 210 | 13.9 | 23.5 | 0.00 | 0.12 | 0.05 | 70 | 1013.8 |
| 20260506095612 | 62 | 226 | 18.2 | 25.2 | 0.00 | 0.12 | 0.05 | 71 | 1013.9 |
| 20260506094543 | 62 | 180 | 12.2 | 17.4 | 0.00 | 0.13 | 0.05 | 74 | 1013.8 |
| 20260506094044 | 62 | 233 | 7.0 | 17.4 | 0.00 | 0.13 | 0.05 | 75 | 1013.7 |
| 20260506093536 | 62 | 226 | 7.0 | 16.5 | 0.00 | 0.13 | 0.05 | 75 | 1013.7 |
| 20260506093032 | 61 | 227 | 9.6 | 17.4 | 0.00 | 0.13 | 0.05 | 75 | 1013.7 |
| 20260506092541 | 61 | 162 | 11.3 | 17.4 | 0.00 | 0.13 | 0.05 | 76 | 1013.7 |
| 20260506092031 | 62 | 149 | 6.1 | 9.6 | 0.00 | 0.14 | 0.05 | 79 | 1013.8 |
| 20260506091604 | 62 | 123 | 3.5 | 11.3 | 0.00 | 0.15 | 0.05 | 81 | 1013.8 |
| 20260506090542 | 60 | 216 | 5.2 | 8.7 | 0.00 | 0.15 | 0.05 | 80 | 1014.0 |
| 20260506085506 | 60 | 231 | 4.3 | 10.4 | 0.00 | 0.17 | 0.05 | 82 | 1013.8 |
| 20260506084502 | 59 | 121 | 5.2 | 9.6 | 0.00 | 0.17 | 0.05 | 81 | 1013.8 |
| 20260506084008 | 59 | 157 | 5.2 | 8.7 | 0.00 | 0.18 | 0.05 | 81 | 1013.9 |
| 20260506083001 | 59 | 152 | 4.3 | 7.8 | 0.00 | 0.18 | 0.05 | 83 | 1013.8 |
| 20260506082509 | 59 | 118 | 4.3 | 7.8 | 0.00 | 0.18 | 0.05 | 83 | 1013.7 |
| 20260506081505 | 58 | 159 | 6.1 | 13.0 | 0.00 | 0.18 | 0.05 | 83 | 1013.8 |
| 20260506080958 | 59 | 159 | 4.3 | 9.6 | 0.00 | 0.18 | 0.05 | 83 | 1013.6 |
| 20260506080454 | 59 | 125 | 3.5 | 8.7 | 0.00 | 0.18 | 0.05 | 85 | 1013.6 |
| 20260506073447 | 58 | 130 | 4.3 | 7.8 | 0.00 | 0.19 | 0.05 | 86 | 1013.6 |
| 20260506072939 | 57 | 145 | 2.6 | 5.2 | 0.00 | 0.19 | 0.05 | 88 | 1013.6 |
| 20260506071938 | 56 | 161 | 5.2 | 7.8 | 0.00 | 0.19 | 0.05 | 88 | 1013.5 |
| 20260506071439 | 56 | 157 | 4.3 | 7.8 | 0.00 | 0.19 | 0.05 | 88 | 1013.6 |
| 20260506070934 | 56 | 190 | 4.3 | 6.1 | 0.00 | 0.19 | 0.05 | 89 | 1013.7 |
| 20260506070436 | 56 | 162 | 3.5 | 6.1 | 0.00 | 0.19 | 0.05 | 88 | 1013.7 |
| 20260506062409 | 54 | 172 | 5.2 | 12.2 | 0.00 | 0.20 | 0.05 | 91 | 1013.6 |
| 20260506061907 | 54 | 171 | 4.3 | 9.6 | 0.00 | 0.20 | 0.05 | 91 | 1013.6 |
| 20260506060909 | 54 | 151 | 6.1 | 10.4 | 0.00 | 0.20 | 0.05 | 91 | 1013.7 |
| 20260506060402 | 54 | 164 | 5.2 | 10.4 | 0.00 | 0.20 | 0.05 | 91 | 1013.6 |
| 20260506050858 | 54 | 145 | 8.7 | 15.6 | 0.00 | 0.24 | 0.05 | 91 | 1013.6 |
| 20260506050347 | 54 | 148 | 9.6 | 15.6 | 0.00 | 0.24 | 0.05 | 91 | 1013.5 |
| 20260506044837 | 54 | 155 | 7.8 | 14.8 | 0.00 | 0.24 | 0.05 | 90 | 1013.4 |
| 20260506044334 | 54 | 121 | 7.8 | 13.9 | 0.00 | 0.24 | 0.05 | 90 | 1013.5 |
| 20260506043834 | 54 | 145 | 7.0 | 13.9 | 0.00 | 0.24 | 0.05 | 90 | 1013.4 |
| 20260506043335 | 54 | 183 | 8.7 | 13.0 | 0.00 | 0.24 | 0.05 | 90 | 1013.5 |
| 20260506042834 | 54 | 214 | 6.1 | 10.4 | 0.00 | 0.24 | 0.05 | 90 | 1013.6 |
| 20260506041825 | 55 | 206 | 5.2 | 11.3 | 0.00 | 0.24 | 0.05 | 89 | 1013.5 |
| 20260506041320 | 55 | 169 | 7.0 | 10.4 | 0.00 | 0.24 | 0.05 | 89 | 1013.4 |
| 20260506040823 | 55 | 165 | 4.3 | 9.6 | 0.00 | 0.24 | 0.05 | 88 | 1013.4 |
| 20260506040317 | 55 | 164 | 5.2 | 12.2 | 0.00 | 0.24 | 0.05 | 88 | 1013.4 |
| 20260506035306 | 55 | 165 | 6.1 | 9.6 | 0.00 | 0.24 | 0.05 | 88 | 1013.4 |
| 20260506034303 | 55 | 196 | 5.2 | 13.9 | 0.00 | 0.25 | 0.05 | 88 | 1013.6 |
| 20260506033756 | 55 | 182 | 7.0 | 18.2 | 0.00 | 0.25 | 0.05 | 88 | 1013.5 |
| 20260506033255 | 55 | 165 | 9.6 | 18.2 | 0.00 | 0.25 | 0.05 | 88 | 1013.4 |
| 20260506032805 | 55 | 207 | 10.4 | 15.6 | 0.00 | 0.25 | 0.05 | 88 | 1013.3 |
| 20260506032256 | 55 | 221 | 10.4 | 20.0 | 0.00 | 0.26 | 0.05 | 88 | 1013.3 |
| 20260506031758 | 55 | 219 | 11.3 | 20.0 | 0.00 | 0.26 | 0.05 | 87 | 1013.2 |
| 20260506031254 | 55 | 131 | 11.3 | 13.9 | 0.00 | 0.26 | 0.05 | 88 | 1013.4 |
| 20260506030753 | 55 | 227 | 9.6 | 14.8 | 0.00 | 0.26 | 0.05 | 88 | 1013.4 |
| 20260506030255 | 55 | 196 | 7.0 | 14.8 | 0.00 | 0.26 | 0.05 | 88 | 1013.4 |
| 20260506025754 | 55 | 204 | 8.7 | 15.6 | 0.01 | 0.25 | 0.05 | 88 | 1013.6 |
| 20260506025254 | 55 | 214 | 9.6 | 15.6 | 0.02 | 0.26 | 0.05 | 89 | 1013.6 |
| 20260506024754 | 56 | 210 | 9.6 | 15.6 | 0.04 | 0.26 | 0.05 | 89 | 1013.7 |
| 20260506023753 | 55 | 214 | 8.7 | 13.0 | 0.05 | 0.27 | 0.05 | 91 | 1013.8 |
| 20260506023255 | 55 | 207 | 8.7 | 12.2 | 0.05 | 0.27 | 0.05 | 92 | 1013.8 |
| 20260506022756 | 56 | 210 | 7.8 | 13.9 | 0.05 | 0.27 | 0.05 | 91 | 1013.8 |
| 20260506022255 | 56 | 212 | 8.7 | 13.9 | 0.05 | 0.27 | 0.05 | 91 | 1013.9 |
| 20260506021754 | 56 | 173 | 7.0 | 10.4 | 0.05 | 0.27 | 0.05 | 91 | 1014.0 |
| 20260506021252 | 56 | 161 | 4.3 | 9.6 | 0.05 | 0.27 | 0.05 | 91 | 1014.2 |
| 20260506020752 | 56 | 199 | 6.1 | 9.6 | 0.05 | 0.27 | 0.05 | 91 | 1014.3 |
| 20260506020254 | 56 | 144 | 4.3 | 11.3 | 0.05 | 0.27 | 0.05 | 90 | 1014.5 |
| 20260506015752 | 56 | 212 | 6.1 | 11.3 | 0.04 | 0.23 | 0.04 | 91 | 1014.4 |
| 20260506015256 | 56 | 189 | 4.3 | 11.3 | 0.02 | 0.23 | 0.02 | 91 | 1014.5 |
| 20260506014753 | 56 | 220 | 7.0 | 11.3 | 0.01 | 0.23 | 0.01 | 91 | 1014.6 |
| 20260506014252 | 56 | 226 | 5.2 | 8.7 | 0.00 | 0.24 | 0.00 | 91 | 1014.5 |
| 20260506013753 | 56 | 217 | 3.5 | 9.6 | 0.00 | 0.24 | 0.00 | 91 | 1014.4 |
| 20260506013254 | 56 | 231 | 3.5 | 9.6 | 0.00 | 0.24 | 0.00 | 91 | 1014.2 |
| 20260506012752 | 56 | 221 | 5.2 | 9.6 | 0.00 | 0.24 | 0.00 | 91 | 1014.2 |
| 20260506012252 | 56 | 157 | 3.5 | 6.1 | 0.00 | 0.24 | 0.00 | 91 | 1014.1 |
| 20260506011753 | 56 | 140 | 4.3 | 7.8 | 0.00 | 0.24 | 0.00 | 91 | 1014.1 |
| 20260506011251 | 56 | 226 | 5.2 | 10.4 | 0.00 | 0.24 | 0.00 | 91 | 1014.2 |
| 20260506005741 | 56 | 159 | 4.3 | 10.4 | 0.00 | 0.24 | 0.00 | 91 | 1014.1 |
| 20260506004735 | 56 | 135 | 5.2 | 6.1 | 0.00 | 0.24 | 0.00 | 91 | 1014.2 |
| 20260506004236 | 56 | 175 | 4.3 | 7.8 | 0.00 | 0.24 | 0.00 | 91 | 1014.2 |
| 20260506003235 | 56 | 183 | 5.2 | 10.4 | 0.00 | 0.24 | 0.00 | 91 | 1014.2 |
| 20260506002734 | 56 | 140 | 7.0 | 10.4 | 0.00 | 0.24 | 0.00 | 91 | 1014.3 |
| 20260506002235 | 56 | 149 | 5.2 | 8.7 | 0.00 | 0.24 | 0.00 | 91 | 1014.2 |
| 20260506001736 | 57 | 209 | 5.2 | 8.7 | 0.00 | 0.24 | 0.00 | 91 | 1014.3 |
| 20260506001217 | 57 | 145 | 3.5 | 8.7 | 0.00 | 0.24 | 0.00 | 91 | 1014.4 |
| 20260506000716 | 57 | 154 | 5.2 | 8.7 | 0.00 | 0.24 | 0.00 | 91 | 1014.5 |
| 20260506000216 | 57 | 155 | 3.5 | 9.6 | 0.00 | 0.24 | 0.00 | 90 | 1014.6 |
| 20260505235227 | 57 | 140 | 5.2 | 9.6 | 0.00 | 0.24 | 0.00 | 90 | 1014.5 |
| 20260505234214 | 57 | 182 | 5.2 | 10.4 | 0.00 | 0.24 | 0.00 | 90 | 1014.6 |
| 20260505233711 | 57 | 176 | 4.3 | 10.4 | 0.00 | 0.24 | 0.00 | 90 | 1014.6 |
| 20260505233213 | 57 | 200 | 5.2 | 10.4 | 0.00 | 0.24 | 0.00 | 90 | 1014.7 |
| 20260505232714 | 57 | 159 | 4.3 | 10.4 | 0.00 | 0.24 | 0.00 | 90 | 1014.6 |
| 20260505232210 | 57 | 134 | 6.1 | 10.4 | 0.00 | 0.24 | 0.00 | 90 | 1014.8 |
| 20260505231709 | 57 | 203 | 4.3 | 11.3 | 0.00 | 0.24 | 0.00 | 89 | 1014.7 |
| 20260505231207 | 57 | 180 | 5.2 | 13.0 | 0.00 | 0.24 | 0.00 | 89 | 1014.8 |
| 20260505230707 | 57 | 176 | 9.6 | 13.9 | 0.00 | 0.24 | 0.00 | 89 | 1014.9 |